Location: *
(51.2167°N, 10.0667°E)
Time: 13:31:21
(UTC+00:00)

COSMOS 2428 - Pass Details

Date: 12 December 2019
Orbit: 844 x 858 km, 70.9° (Epoch: 17 January)

Event Time Altitude Azimuth Distance (km) Brightness Sun altitude
Rises 16:14:26 0° 215° (SW) 3,394 7.0 -9.2°
Reaches altitude 10° 16:16:53 10° 218° (SW) 2,464 6.2 -9.5°
Maximum altitude 16:22:32 71° 302° (WNW) 897 3.0 -10.3°
Drops below altitude 10° 16:28:15 10° 27° (NNE) 2,489 4.7 -11.1°
Enters shadow 16:28:56 - 28° (NNE) 2,749 4.9 -11.2°
